User: anonymous   Login
Location: M.A.R.S.Observatory
(35.4031°N, 81.5481°W)
Time: 01:48:05
(UTC-05:00)
Language:

SL-8 R/B - Orbit

View from above orbital plane
View from above orbital plane
View from above satellite
View from above satellite

Ground track
Ground track

The orbit data is extracted from the following two-line orbital elements,

1 33066U 08031G   16337.17610534 -.00000069  00000-0  21265-4 0  9993
2 33066  48.4445 311.8802 0007820 358.9152  93.6753 14.69495396453788
Epoch (UTC): 02 December 2016 04:13:35
Eccentricity: 0.0007820
inclination: 48.4445°
perigee height: 657 km
apogee height: 668 km
right ascension of ascending node: 311.8802°
argument of perigee: 358.9152°
revolutions per day: 14.69495396
mean anomaly at epoch: 93.6753°
orbit number at epoch: 45378

The dashed part of the orbit path shows where the satellite is in the earth's shadow,  

DLR